Regional Weather Roundup
Issued by NWS

Home | Current Version | Previous Version | Graphics & Text | Print | Product List | Glossary On
Versions: 1 2 3 4 5 6 7 8 9 10 11 12 13 14
000
ASUS45 KTFX 151810
RWRMT
MONTANA REGIONAL WEATHER ROUNDUP
NATIONAL WEATHER SERVICE GREAT FALLS MT
1100 AM MST SUN JAN 15 2017

NOTE: "FAIR" INDICATES FEW OR NO CLOUDS BELOW 12000 FEET WITH NO
SIGNIFICANT WEATHER AND/OR OBSTRUCTIONS TO VISIBILITY.

MTZ001>007-043-151900-
WEST OF THE DIVIDE

CITY           SKY/WX    TMP DP  RH WIND       PRES   REMARKS
KALISPELL      LGT SNOW  15  10  80 NE3       30.31F
MISSOULA       MOSUNNY   -6  -6 100 CALM      30.36S
BUTTE          CLOUDY     1  -5  75 CALM      30.16S
MULLAN PASS    MOSUNNY   22   9  57 VRB5      30.11R
ANACONDA         N/A     12   0  57 CALM      30.18S
DEER LODGE       N/A      1  -6  71 CALM      30.23F
EUREKA           N/A     16   9  73 CALM      30.34F
HAMILTON         N/A      1  -4  78 CALM      30.29F
RONAN            N/A      3  -3  76 MISG      30.30F VSB 0
$$

MTZ008-052>055-151900-
SOUTHWEST MONTANA

CITY           SKY/WX    TMP DP  RH WIND       PRES   REMARKS
BOZEMAN        CLOUDY     2  -1  88 CALM      30.19F
DILLON         CLOUDY    16  -5  39 S9        30.16F WCI   4
W YELLOWSTONE  CLOUDY    -4  -9  77 CALM      30.19F
ENNIS          SUNNY      9   0  66 N5        30.19F
TWIN BRIDGES     N/A      5  -8  55 SE3       30.14F
$$

MTZ009-010-012-014-046-048-049-054-151900-
EAST SLOPES AND CENTRAL MONTANA

CITY           SKY/WX    TMP DP  RH WIND       PRES   REMARKS
CUT BANK       CLOUDY    34  14  43 W23       29.96S WCI  22
GREAT FALLS    CLOUDY    31  13  47 S18       30.03S WCI  19
MALMSTROM AFB  CLOUDY    29  17  61 SW22      30.04R WCI  15
HELENA         CLOUDY    -1  -5  82 CALM      30.22F FOG
AUGUSTA          N/A     26  10  50 S6        30.01R WCI  19
BOWMANS CRNR     N/A     20   7  57 S26       30.02F WCI   2
CHOTEAU          N/A     36  12  38 S10       30.01F WCI  28
CONRAD           N/A     37  22  55 SW14      29.98S WCI  28
FAIRFIELD        N/A     23  10  56 SW24      30.00F WCI   7
POWER            N/A     24  12  60 S10       30.02S WCI  14
RAYNESFORD       N/A     37  10  32 SW21      30.02S WCI  27
ULM              N/A     28   7  41 MISG      30.06S
$$

MTZ011-013-016-021-045-047-050-051-151900-
NORTH CENTRAL MONTANA

CITY           SKY/WX    TMP DP  RH WIND       PRES   REMARKS
HAVRE          CLOUDY    23  13  65 W8        30.00S WCI  14
LEWISTOWN      CLOUDY    24   9  52 SE5       30.01S
N BAR RANCH      N/A     34  12  40 CALM      30.00F
CHINOOK          N/A      5  -2  72 E7        30.02S WCI  -7
DENTON           N/A     21  11  64 S13       29.97F WCI   9
FORT BENTON      N/A     34  16  47 MISG      30.04F
GEYSER           N/A     31  15  51 W5        29.99F
GRASS RANGE      N/A     38  12  34 W10       29.96F WCI  31
JUDITH GAP       N/A     29  12  49 W16       29.99F WCI  17
ROY              N/A     34  16  47 MISG      29.98S
STANFORD         N/A     31  14  49 E3        29.99S
WINIFRED         N/A     35  13  41 W9        29.99S WCI  27
$$

MTZ017>020-022>027-061-062-151900-
NORTHEAST MONTANA

CITY           SKY/WX    TMP DP  RH WIND       PRES   REMARKS
GLASGOW        CLOUDY     6  -1  73 E5        30.02F
JORDAN           N/A     24  10  55 NW8       30.02F WCI  15
SIDNEY         SUNNY     10   3  73 S9        30.06F WCI  -3
WOLF POINT     CLOUDY     1  -7  68 SW6       30.06S WCI -10
PLENTYWOOD       N/A      7   0  72 SE8       29.98F WCI  -6
POPLAR           N/A      0  -6  78 W5        30.05S
$$

MTZ028>42-056>058-151900-
SOUTHCENTRAL AND SOUTHEAST MONTANA

CITY           SKY/WX    TMP DP  RH WIND       PRES   REMARKS
BAKER          CLOUDY    23  11  60 SW16      30.07F WCI  10
BILLINGS       MOSUNNY   21   6  52 SW20      30.07S WCI   6
LIVINGSTON     CLOUDY    31  10  41 W23       30.08F WCI  18
MILES CITY     CLOUDY     6  -2  69 S7        30.09F WCI  -6
BIG TIMBER     SUNNY     30   9  40 W32G39    30.05F WCI  15
EKALAKA          N/A     30   8  39 SW12      30.02  WCI  20
FORSYTH          N/A      9   0  66 CALM      30.08F
HARLOWTON        N/A     32  12  43 W31       30.01F WCI  17
LAUREL           N/A     17   2  52 SW21      30.04F WCI   0
$$

REGIONAL REPORTS...DAKOTAS

CITY           SKY/WX    TMP DP  RH WIND       PRES   REMARKS
WILLISTON      CLOUDY    13   3  64 SW10      30.03F WCI   0
MINOT          CLOUDY    20   9  62 SW20      30.01F WCI   4
DICKINSON      CLOUDY    21  10  62 W16       30.02F WCI   7
BEACH            N/A     23   9  54 SW7       30.07F WCI  15
CROSBY           N/A     10   3  72 SW22      29.99F WCI  -9
TIOGA            N/A     12   7  79 W3        30.01F
WATFORD CITY     N/A     12   3  67 SW8       30.04F WCI   1
BISMARCK       CLOUDY     3  -4  72 CALM      30.12F
GRAND FORKS    CLOUDY    10   3  73 S12       30.12S WCI  -5
FARGO          SUNNY     17  11  77 S12       30.15F WCI   4
BUFFALO SD       N/A     22  12  65 W5        29.99F
RAPID CITY     CLOUDY    28  13  53 CALM      30.10F
$$

REGIONAL REPORTS...WYOMING/IDAHO/WASHINGTON

CITY           SKY/WX    TMP DP  RH WIND       PRES   REMARKS
GILLETTE       CLOUDY    26  15  63 CALM      30.08S
SHERIDAN       CLOUDY    19  -1  41 SW6       30.06F WCI  11
BUFFALO WY     CLOUDY    34  -7  17 CALM      30.06F
CODY           CLOUDY    27   9  46 SW9       30.08F WCI  18
YELLOWSTONE LA   N/A    -11 -14  86 CALM      30.14F
IDAHO FALLS    CLOUDY     4  -1  80 CALM      30.22S
SALMON         CLOUDY   -15 -15 100 CALM      30.48F
BOISE          CLOUDY    10   7  87 SW3       30.40S FOG
SPOKANE        FOG        6   3  87 S5        30.34S VSB 1
$$

REGIONAL REPORTS...ALBERTA

CITY           SKY/WX    TMP DP  RH WIND       PRES   REMARKS
EDMONTON       SUNNY     32  18  55 W7        29.85R WCI  26
LETHBRIDGE     PTSUNNY   34  19  55 W32G39    29.92R WCI  20
MEDICINE HAT   PTSUNNY   34  23  64 SW13G21   29.90R WCI  25
WATERTON GATE    N/A     30   7  37 SW30G40     N/A  WCI  15
CARDSTON         N/A     37  12  35 W17G28      N/A  WCI  28
MILK RIVER       N/A     34  21  60 W23         N/A  WCI  22
$$

REGIONAL REPORTS...SASKATCHEWAN

CITY           SKY/WX    TMP DP  RH WIND       PRES   REMARKS
SWIFT CURRENT  MOSUNNY   25  14  63 SW13      29.87R WCI  13
REGINA         PTSUNNY   16   9  73 S8        29.91F WCI   5
SASKATOON      PTSUNNY   23  14  68 SW13      29.84F WCI  11
CYPRESS HILLS    N/A     32  10  40 W7          N/A  WCI  26
VAL MARIE        N/A      7   0  72 S1          N/A
ROCKGLEN         N/A     23  10  58 SW17G23     N/A  WCI   9
ASSINIBOIA       N/A     36  21  55 W12         N/A  WCI  27
$$




USA.gov is the U.S. government's official web portal to all federal, state and local government web resources and services.